Location: Peebles
(55.6412°N, 3.1714°W)
Time: 16:46:28
(UTC+01:00)

USA 238 DEB - Pass Details

Date: 24 January 2022
Orbit: 969 x 1243 km, 63.4° (Epoch: 04 May)

Event Time Altitude Azimuth Distance (km) Brightness Sun altitude
Rises 20:47:20 0° 288° (WNW) 3,810 7.6 -35.5°
Reaches altitude 10° 20:50:02 10° 294° (WNW) 2,894 6.7 -35.8°
Enters shadow 20:55:40 44° 345° (NNW) 1,495 4.5 -36.6°
